TITAN 3C TRANSTAGE DEB, 59978

Orbit data source: Space-Track

TITAN 3C TRANSTAGE DEB, 59978 is space debris in GEO originally from a launch on Thu, 26 Sep 1968 UTC launched from the Air Force Eastern Test Range (AFETR). Debris objects in space refer to the collection of defunct objects orbiting the Earth. Examples of debris include non-operational satellites, rocket bodies, and fragments generated from explosions, collisions, or faulty payload assembly.

Loading next visibility...
Identifier
59978, 1968-081AL
Orbit
GEO
Country
Flag of USUS
Related business
Manufacturer
Unknown
Mission
Spacecraft
Bus & Motor
Unknown
Mass
Unknown
Launch date (UTC)
1968-09-26 (57 years ago)
Launch vehicle
Unknown
Launch site
Air Force Eastern Test Range (AFETR)
Object type
Payload
Rocket body
Debris
Shape & HBR
Unknown shape, 1.1 m
Radar Cross Section
RCS unknown

Expand to show TLE details & history
Last TLE update: 1 day ago

TLE from 1 day ago
0 TITAN 3C TRANSTAGE DEB
1 59978U 68081AL  25347.15845058 -.00000296  00000-0  00000-0 0  9996
2 59978   1.7980  53.5033 0101357 241.2452 117.1666  1.02048653 27917
Epoch: 2025-12-13T03:48Z
TLE epoch observation values (Epoch: 2025-12-13T03:48:10.130Z)
Latitude
-0°
Longitude
-86.19628°
Altitude
35,493.03 km
Speed
3.078 km/s
True Right ascension
03h 31m 44s
True Declination
0° 00' 00"
Sunlit
Object was in daylight at epoch
Visualization orbit readout
Latitude
Unknown
Longitude
Unknown
Altitude
Unknown
Speed
Unknown
Apparent Right ascension
Unknown
Apparent Declination
Unknown
Sunlit
N/A
Visualization observer readout
Local Sidereal Time
13:23:03
Azimuth
Unknown
Elevation
Unknown
Doppler factor
Unknown
Orbital elements
Apogee altitude
35,719.202 km
Perigee altitude
34,874.392 km
Semi-major axis
41,674.934 km
Eccentricity
0.01014
Inclination
1.798°
RAAN
53.5033°
Arg. of periapsis
241.2452°
True anomaly
118.19394°
Mean anomaly
117.1666°
Eccentric anomaly
117.68087°
Mean motion
0.25511 °/min
Orbital period
1,411.15 mins
BSTAR
0
Loading maneuver chart data...
Computing Atmospheric mass density...

Documentation

Showing up to 5 results
|